EHI
0 0 0 0 0 0 0 0 0 0 0 0 0 0 0 0 0 0 0 0 0 0 0 0 0 0 0 0 0 0 0 0 0 0 0 0 0 0 0 0 0 0 0
0 0 0 0 0 0 0 0 0 0 0 0 0 0 0 0 0 0 0 0 0 0 0 0 0 0 0 0 0 0 0 0 0 0 0 0 0 0 0 0 0 0 0
0 0 0 0 0 0 0 0 0 0 0 0 0 0 0 0 0 0 0 0 0 0 0 0 0 0 0 0 0 0 0 0 0 0 0 0 0 0 0 0 0 0 0
0 0 0 0 0 0 0 0 0 0 0 0 0 0 0 0 0 0 0 0 0 0 0 0 0 0 0 0 0 0 0 0 0 0 0 0 0 0 0 0 0 0 0
0 0 0 0 0 0 0 0 0 0 0 0 0 0 0 0 0 0 0 0 0 0 0 0 0 0 0 0 0 0 0 0 0 0 0 0 0 0 0 0 0 0 0
0 0 0 0 0 0 1 1 0 0 0 0 0 0 0 0 0 0 0 0 0 0 0 0 0 0 0 0 0 0 0 0 0 0 0 0 0 0 0 0 0 0 0
0 0 0 0 0 0 1 1 0 0 0 0 0 0 0 0 0 0 0 0 0 0 0 0 0 0 0 0 0 0 0 0 0 0 0 0 0 0 0 0 0 0 0
0 0 0 0 0 0 1 1 1 0 0 0 0 0 0 0 0 0 0 0 0 0 0 0 0 0 0 0 0 0 0 0 0 0 0 0 0 0 0 0 0 0 0
0 0 0 0 0 0 0 0 1 0 0 0 0 0 0 0 0 0 0 0 0 0 0 0 0 0 0 0 0 0 0 0 0 0 0 0 0 0 0 0 0 0 0
0 0 0 0 0 0 0 0 0 0 0 0 0 0 0 0 0 0 0 0 0 0 0 0 0 0 0 0 0 0 0 0 0 0 0 0 0 0 0 0 0 0 0
0 0 0 0 0 0 0 0 0 0 0 0 0 0 0 0 0 0 0 0 0 0 0 0 0 0 0 0 0 0 0 0 0 0 0 0 0 0 0 0 0 0 0
0 0 0 0 0 0 0 0 0 0 0 0 0 0 0 0 0 0 0 0 0 0 0 0 0 0 0 0 0 0 0 0 0 0 0 0 0 0 0 0 0 0 0
0 0 0 0 0 0 0 0 0 0 0 0 0 0 0 0 0 0 0 0 0 0 0 0 0 0 0 0 0 0 0 0 0 0 0 0 0 0 0 0 0 0 0
0 0 0 0 0 0 0 0 0 0 0 0 0 0 0 0 0 0 0 0 0 0 0 0 0 0 0 0 0 0 0 0 0 0 0 0 0 0 0 0 0 0 0
0 0 0 0 0 0 0 0 0 0 0 0 0 0 0 0 0 0 0 0 0 0 0 0 0 0 0 0 0 0 0 0 0 0 0 0 0 0 0 0 0 0 0
0 0 0 0 0 0 0 0 0 0 0 0 0 0 0 0 0 0 0 0 0 0 0 0 0 0 0 0 0 0 0 0 0 0 0 0 0 0 0 0 0 0 0
0 0 0 0 0 0 0 0 0 0 0 0 0 0 0 0 0 0 0 0 0 0 0 0 0 0 0 0 0 0 0 0 0 0 0 0 0 0 0 0 0 0 0
0 0 0 0 0 0 0 0 0 0 0 0 0 0 0 0 0 0 0 0 0 0 0 0 0 0 0 0 0 0 0 0 0 0 0 0 0 0 0 0 0 0 0
0 0 0 0 0 0 0 0 0 0 0 0 0 0 0 0 0 0 0 0 0 0 0 0 0 0 0 0 0 0 0 0 0 0 0 0 0 0 0 0 0 0 0
0 0 0 0 0 0 0 0 0 0 0 0 0 0 0 0 0 0 0 0 0 0 0 0 0 0 0 0 0 0 0 0 0 0 0 0 0 0 0 0 0 0 0
0 0 0 0 0 0 0 0 0 0 0 0 0 0 0 0 0 0 0 0 0 0 0 0 0 0 0 0 0 0 0 0 0 0 0 0 0 0 0 0 0 0 0
0 0 0 0 0 0 0 0 0 0 0 0 0 0 0 0 0 0 0 0 0 0 0 0 0 0 0 0 0 0 0 0 0 0 0 0 0 0 0 0 0 0 0
0 0 0 0 0 0 0 0 0 0 0 0 0 0 0 0 0 0 0 0 0 0 0 0 0 0 0 0 0 0 0 0 0 0 0 0 0 0 0 0 0 0 0
0 0 0 0 0 0 0 0 0 0 0 0 0 0 0 0 0 0 0 0 0 0 0 0 0 0 0 0 0 0 0 0 0 0 0 0 0 0 0 0 0 0 0
0 0 0 0 0 0 0 0 0 0 0 0 0 0 0 0 0 0 0 0 0 0 0 0 0 0 0 0 0 0 0 0 0 0 0 0 0 0 0 0 0 0 0
0 0 0 0 0 0 0 0 0 0 0 0 0 0 0 0 0 0 0 0 0 0 0 0 0 0 0 0 0 0 0 0 0 0 0 0 0 0 0 0 0 0 0
Wind_Speed
6 5 5 6 6 5 5 5 4 4 2 2 1 2 2 2 3 3 4 4 5 5 5 4 5 5 5 5 6 5 5 5 5 3 2 0 1 2 2 2 3 3 3
8 7 6 6 5 5 4 4 3 3 2 1 1 1 1 2 2 2 3 4 5 5 4 5 4 4 3 5 6 5 5 4 5 5 4 2 1 2 2 2 3 4 3
8 8 7 7 6 5 4 3 3 4 3 2 1 1 1 1 1 2 2 4 4 5 5 5 5 4 4 4 5 5 6 5 5 5 5 4 4 3 1 3 3 4 3
8 8 8 7 6 5 5 4 4 4 3 3 2 1 1 2 3 2 2 3 4 4 4 5 5 5 4 4 5 5 4 5 4 4 3 4 4 4 3 2 3 4 4
9 8 8 7 6 6 5 4 5 4 3 3 2 1 2 2 2 2 3 3 3 4 4 5 4 5 4 5 5 5 5 4 5 4 4 4 3 4 4 4 5 3 3
10 9 8 7 7 6 5 5 5 4 3 3 2 2 2 2 2 3 3 3 3 3 5 5 4 5 5 5 5 4 4 4 5 4 4 4 4 4 4 5 5 5 4
11 11 10 9 8 7 6 6 5 5 4 3 3 2 2 2 2 3 3 3 3 4 5 5 5 5 5 5 5 4 4 4 4 4 4 4 4 4 4 5 5 6 4
11 11 10 9 8 8 7 6 6 5 4 3 3 2 2 1 2 2 3 3 3 4 5 5 5 5 5 5 5 4 4 4 4 4 4 4 4 4 4 4 5 6 4
12 11 10 9 9 9 8 7 6 6 5 4 3 2 2 1 2 2 2 2 3 3 4 4 4 5 5 5 5 4 5 5 5 5 4 4 3 4 4 4 4 5 6
12 12 11 10 9 8 8 7 6 6 5 4 3 2 1 1 1 1 2 3 3 3 4 4 5 5 5 5 5 4 5 5 4 4 5 5 4 3 3 4 4 4 5
13 12 11 10 9 9 8 8 7 6 5 4 3 3 2 1 1 1 2 2 2 2 3 4 5 5 5 5 5 5 5 6 6 5 5 5 5 4 4 3 3 4 4
13 12 11 11 10 10 9 8 7 6 5 4 4 3 2 2 1 1 1 1 2 3 4 4 4 5 5 6 6 5 5 6 6 6 6 5 4 5 4 4 4 4 5
13 12 12 11 11 10 9 8 7 6 6 5 4 4 3 2 1 0 1 1 2 2 3 3 4 5 5 5 5 5 6 6 6 6 6 6 6 5 4 5 5 4 4
13 13 12 12 11 10 9 8 8 7 6 6 5 4 2 2 1 0 1 1 2 3 3 3 4 4 5 5 6 6 6 6 6 6 6 6 6 6 6 5 6 5 5
14 15 14 12 12 11 10 9 8 7 7 6 5 4 3 2 1 1 1 1 2 3 3 4 4 4 4 6 8 7 6 7 6 6 6 5 5 6 6 6 7 6 6
15 15 14 14 13 13 11 10 9 8 7 6 5 4 3 2 2 1 1 1 2 3 3 4 4 4 4 7 9 9 7 7 7 7 6 5 4 4 6 6 8 8 8
14 15 15 14 13 13 12 11 10 9 8 7 5 5 4 3 3 2 1 1 2 2 3 4 4 4 4 6 8 9 8 7 7 7 7 6 5 7 6 6 8 8 8
13 13 13 13 12 12 11 10 10 9 8 7 6 5 5 4 3 2 2 3 2 2 3 4 4 4 4 6 8 10 9 6 6 6 7 7 7 6 8 9 8 8 6
10 10 11 11 11 12 12 11 11 10 9 8 7 7 6 5 4 3 3 3 2 3 3 4 5 5 4 4 8 10 7 6 6 6 6 7 7 6 9 10 9 8 6
8 8 9 11 11 12 12 12 11 10 10 9 8 7 6 6 5 4 4 3 3 4 4 4 5 6 6 4 7 10 6 7 6 6 6 4 6 8 10 10 9 9 8
8 8 10 10 10 11 12 12 11 11 9 8 7 7 6 6 6 5 4 4 4 4 5 5 5 5 6 4 5 8 7 7 7 6 6 5 5 8 10 11 9 8 10
8 9 9 9 9 11 12 12 11 9 8 8 8 7 7 6 5 5 5 5 5 5 5 5 5 5 5 5 5 7 8 10 8 7 7 6 7 9 11 9 8 10 11
7 7 8 8 9 10 11 12 10 9 9 8 8 8 7 6 6 6 6 6 5 5 5 5 5 5 5 4 6 7 8 9 8 7 8 10 11 11 9 8 9 10 7
6 6 8 8 9 9 10 10 8 9 9 9 8 8 8 7 7 5 6 6 6 6 6 6 6 6 5 5 5 5 6 7 8 8 8 10 11 10 9 9 8 6 6
4 6 7 7 8 8 9 9 9 9 10 9 8 8 7 7 7 6 6 7 7 6 6 6 6 7 7 6 7 8 8 8 8 9 9 8 7 7 6 6 6 6 5
4 5 6 6 7 8 8 8 8 9 10 9 8 7 6 6 6 6 6 7 8 7 9 10 10 8 8 9 9 11 12 12 12 10 9 8 8 8 8 7 7 6 6
Wind_Direction
146 146 145 145 147 142 134 127 132 126 128 117 107 89 82 65 60 48 36 24 18 14 15 6 17 9 16 9 5 0 4 4 351 334 334 94 87 27 24 358 349 2 355
160 152 155 149 147 141 141 139 133 126 118 95 75 69 55 50 50 39 38 22 18 13 4 9 9 16 9 12 10 6 356 7 2 344 330 333 151 58 32 13 356 352 352
173 162 159 155 151 145 144 141 135 130 125 127 124 129 128 150 100 59 39 21 15 16 7 7 3 5 4 13 4 3 1 358 9 10 349 341 360 343 24 13 3 0 346
178 167 164 161 156 148 148 146 139 127 120 130 122 90 47 44 37 18 26 19 23 18 10 4 359 1 3 2 358 8 354 347 355 6 2 351 343 319 333 347 3 354 350
179 172 170 163 158 149 149 145 135 125 117 112 102 92 67 56 50 30 27 12 30 18 13 2 358 358 358 359 356 352 349 348 346 345 343 338 321 307 312 321 335 338 348
178 174 169 165 157 152 152 149 144 129 124 124 117 93 75 56 46 33 23 15 30 21 22 4 359 358 358 356 352 347 349 346 343 333 336 332 327 330 322 313 320 328 336
178 175 171 171 164 162 159 159 154 144 142 142 130 109 93 68 46 26 33 15 24 27 21 10 1 3 1 357 350 347 347 347 343 338 336 331 324 320 315 309 312 313 312
179 177 174 172 167 165 165 165 158 152 150 157 141 123 114 76 50 30 20 22 19 20 15 10 7 7 2 356 355 343 348 346 342 344 337 323 327 321 317 309 311 307 309
179 177 174 174 170 170 170 169 165 161 160 161 154 139 109 82 60 36 23 23 22 17 13 7 7 9 6 358 352 350 350 347 342 339 336 327 331 321 318 311 303 304 307
180 177 175 175 172 170 168 169 172 166 161 165 158 134 129 110 67 21 29 24 23 21 11 8 7 9 7 2 358 350 353 344 346 335 333 329 328 329 318 309 304 295 296
180 178 175 173 171 169 170 172 173 170 162 162 155 157 146 138 129 64 34 13 11 11 8 5 0 4 4 4 360 352 349 342 342 338 336 334 336 328 324 317 306 298 295
180 177 174 172 172 174 174 175 175 170 164 161 159 153 143 153 146 81 35 8 11 4 359 1 358 0 355 354 353 348 343 339 337 337 332 329 328 325 325 318 312 306 300
180 178 177 178 178 177 177 176 175 171 164 166 169 170 165 159 148 57 24 356 359 356 353 353 352 350 348 347 343 339 337 336 335 334 330 327 324 322 326 313 312 308 304
182 181 182 183 181 180 179 177 176 173 171 173 181 184 177 172 196 66 338 337 340 335 337 344 343 343 340 339 338 335 329 328 328 329 327 325 326 325 325 315 312 308 304
188 188 187 185 183 183 182 180 178 177 178 180 188 190 187 187 204 200 273 325 332 323 329 329 332 340 334 350 340 328 325 322 322 321 320 327 321 328 322 315 314 309 300
194 192 191 189 189 187 185 182 181 180 181 185 186 179 189 185 201 220 259 313 318 324 328 322 329 332 346 357 335 320 316 316 316 319 319 315 293 303 284 291 300 300 296
196 194 193 192 192 190 186 183 182 177 182 186 184 183 189 190 203 213 229 258 277 312 317 319 322 320 350 343 331 324 312 312 316 318 319 318 319 303 308 291 269 267 262
196 195 193 190 190 187 183 181 179 181 186 189 189 189 193 195 199 213 234 254 277 296 301 309 312 317 333 336 328 319 300 307 311 311 312 310 310 330 325 309 299 296 288
195 192 190 185 184 183 181 181 183 186 189 193 195 193 195 197 201 212 229 248 271 281 287 298 302 301 308 332 324 314 305 303 305 308 312 312 309 344 320 302 301 299 294
185 181 180 181 182 181 181 187 189 190 194 195 198 197 199 202 208 218 230 239 254 268 278 286 292 298 304 333 318 311 302 305 307 307 303 308 309 321 313 302 301 300 306
174 175 178 181 182 179 183 192 195 198 196 194 197 200 203 209 214 221 229 239 250 263 273 279 282 288 298 299 302 308 304 309 306 303 304 315 315 307 304 298 298 306 306
171 176 179 181 181 182 188 196 200 197 190 190 197 204 208 211 213 220 233 242 250 257 265 274 281 284 284 291 295 296 296 305 301 300 301 314 318 303 295 290 296 295 290
172 178 181 180 183 188 196 201 195 189 189 194 201 208 211 214 220 223 229 238 246 257 267 274 281 285 290 280 266 276 284 289 289 294 305 302 295 288 280 269 276 279 277
174 177 182 187 189 191 200 206 193 190 196 201 206 210 215 217 221 229 234 239 245 253 263 272 278 284 286 288 291 290 282 270 273 282 284 272 270 264 267 272 267 270 281
175 183 192 195 196 194 200 203 198 198 205 209 212 216 221 224 229 230 240 246 248 257 264 271 275 282 284 300 313 301 297 300 304 304 291 286 285 282 279 280 282 280 277
180 187 194 200 201 198 200 201 202 205 211 216 217 220 222 225 231 238 239 238 249 248 247 257 269 276 276 289 291 289 288 290 292 289 281 282 284 285 285 285 285 281 280